Location: Devargunta
(16.7631°N, 80.9077°E)
Time: 15:59:54
(UTC+00:00)

DELTA 2 R/B (1) - Pass Details

Date: 19 January 2021
Orbit: 790 x 803 km, 39.6° (Epoch: 25 February)

Event Time Altitude Azimuth Distance (km) Brightness Sun altitude
Rises 14:08:38 0° 316° (NW) 3,275 7.1 -24.3°
Reaches altitude 10° 14:11:14 10° 323° (NW) 2,344 6.2 -24.9°
Enters shadow 14:15:00 35° 356° (N) 1,239 4.4 -25.8°
